sat.trackr.live / text

‹ back to catalog

ONEWEB-0418

NORAD 50493 · 2021-132AA

PAYLOAD ACTIVE UNKNOWN

§ Identity

Operator
Country
UK
Launch date
2021-12-27
Launch site
TYMSC
Launch vehicle
Mass (kg)
RCS (m²)

Purposes: comms

External: N2YO · Heavens-Above · Gunter

§ Orbital elements

Epoch: 2026-09-19T23:00:38.947968Z

Period
109.20 min
Inclination
87.9161°
Eccentricity
0.0002050
Mean motion
13.18686957 rev/d
Perigee alt
1,188.2 km
Apogee alt
1,191.3 km
Semi-major
7,567.9 km
B*
-2.1308e-4
RAAN
316.6263°
Arg perigee
109.2901°
Mean anomaly
250.8453°
Rev number
23,415

§ Raw data

ONEWEB-04181 50493U 21132AA  26262.95878412 -.00000071  00000+0 -21308-3 0  99982 50493  87.9161 316.6263 0002050 109.2901 250.8453 13.18686957234157

JSON: /api/v1/satellites/50493 · /tle

For live sub-satellite position, see the globe view (requires WebGL).

§ Visibility from observer

Set your observer location to see the next 7 days of passes ≥ 10°. The values pass through the URL so the page stays shareable.

No JS? Fill the form by hand. The geolocation button needs JavaScript.